NAA437 KOKC-KMSP

Flight info

Callsign NAA437
Flight time 1h 38m
Altitude 37000
Route WENDY3 BELMN TRAIG ROKKK NITZR4
Aircraft A319/M-SDE3FGHIRWY/LB1

Departure

Time 2026-04-20 13:01
Airport OKC Will Rogers World Airport (KOKC)

Arrival

Time 2026-04-20 14:39
Airport Minneapolis–Saint Paul International Airport / Wold–Chamberlain Field (KMSP)
Time Latitude Longitude Altitude Speed Heading
2026-04-20 12:42 35.39480 -97.59937 1297 ft 0 kts 56°
2026-04-20 12:53 35.39478 -97.59942 1297 ft 3 kts 56°
2026-04-20 12:53 35.39463 -97.59968 1297 ft 3 kts 56°
2026-04-20 12:53 35.39460 -97.59974 1297 ft 0 kts 56°
2026-04-20 12:54 35.39459 -97.59977 1297 ft 2 kts 51°
2026-04-20 12:54 35.39443 -97.59986 1296 ft 3 kts
2026-04-20 12:55 35.39429 -97.59981 1296 ft 1 kts 318°
2026-04-20 12:55 35.39429 -97.59980 1296 ft 0 kts 318°
2026-04-20 12:55 35.39429 -97.59981 1296 ft 0 kts 318°
2026-04-20 12:56 35.39442 -97.59996 1296 ft 7 kts 310°
2026-04-20 12:56 35.39418 -97.60079 1293 ft 13 kts 274°
2026-04-20 12:56 35.39484 -97.60169 1290 ft 15 kts 317°
2026-04-20 12:56 35.39562 -97.60257 1291 ft 15 kts 317°
2026-04-20 12:57 35.39637 -97.60351 1289 ft 16 kts 315°
2026-04-20 12:57 35.39745 -97.60401 1288 ft 18 kts 359°
2026-04-20 12:57 35.39879 -97.60399 1289 ft 20 kts
2026-04-20 12:57 35.40020 -97.60403 1292 ft 20 kts 358°
2026-04-20 12:58 35.40150 -97.60405 1295 ft 18 kts
2026-04-20 12:58 35.40270 -97.60400 1297 ft 17 kts
2026-04-20 12:58 35.40386 -97.60400 1297 ft 16 kts 357°
2026-04-20 12:58 35.40499 -97.60400 1297 ft 16 kts
2026-04-20 12:59 35.40582 -97.60445 1297 ft 6 kts 297°
2026-04-20 12:59 35.40590 -97.60494 1298 ft 5 kts 266°
2026-04-20 12:59 35.40585 -97.60541 1298 ft 6 kts 262°
2026-04-20 12:59 35.40559 -97.60573 1298 ft 6 kts 178°
2026-04-20 13:00 35.40501 -97.60575 1297 ft 14 kts 181°
2026-04-20 13:00 35.40153 -97.60575 1296 ft 87 kts 180°
2026-04-20 13:00 35.39326 -97.60575 1295 ft 147 kts 180°
2026-04-20 13:00 35.38273 -97.60563 1862 ft 148 kts 179°
2026-04-20 13:01 35.37264 -97.60733 2559 ft 148 kts 206°
2026-04-20 13:01 35.36380 -97.61382 3220 ft 150 kts 210°
2026-04-20 13:01 35.35620 -97.62371 3532 ft 176 kts 243°
2026-04-20 13:01 35.35502 -97.63960 3798 ft 210 kts 274°
2026-04-20 13:02 35.35921 -97.65793 4206 ft 240 kts 294°
2026-04-20 13:02 35.37063 -97.67418 4757 ft 267 kts 323°
2026-04-20 13:02 35.38814 -97.68293 5644 ft 278 kts 349°
2026-04-20 13:02 35.40788 -97.68245 6551 ft 284 kts
2026-04-20 13:03 35.42742 -97.67965 7415 ft 288 kts
2026-04-20 13:03 35.44738 -97.67670 8294 ft 292 kts
2026-04-20 13:03 35.46771 -97.67368 9173 ft 295 kts
2026-04-20 13:03 35.48820 -97.67066 10075 ft 298 kts
2026-04-20 13:04 35.50917 -97.66762 10630 ft 314 kts
2026-04-20 13:04 35.53155 -97.66441 11053 ft 331 kts
2026-04-20 13:04 35.55469 -97.66106 11778 ft 336 kts
2026-04-20 13:04 35.57801 -97.65766 12610 ft 338 kts
2026-04-20 13:05 35.60147 -97.65424 13439 ft 340 kts
2026-04-20 13:05 35.62504 -97.65079 14256 ft 342 kts
2026-04-20 13:05 35.64879 -97.64734 14967 ft 345 kts
2026-04-20 13:05 35.67268 -97.64387 15659 ft 347 kts
2026-04-20 13:06 35.69682 -97.64035 16346 ft 350 kts
2026-04-20 13:06 35.72107 -97.63679 17029 ft 353 kts
2026-04-20 13:06 35.74532 -97.63100 17693 ft 358 kts 14°
2026-04-20 13:06 35.76892 -97.62056 18363 ft 362 kts 18°
2026-04-20 13:07 35.79258 -97.60947 18960 ft 365 kts 18°
2026-04-20 13:07 35.81643 -97.59831 19529 ft 368 kts 18°
2026-04-20 13:07 35.84054 -97.58705 20115 ft 371 kts 18°
2026-04-20 13:07 35.86477 -97.57575 20692 ft 374 kts 18°
2026-04-20 13:08 35.88918 -97.56434 21280 ft 376 kts 18°
2026-04-20 13:08 35.91372 -97.55286 21851 ft 379 kts 17°
2026-04-20 13:08 35.93850 -97.54130 22422 ft 382 kts 17°
2026-04-20 13:08 35.96349 -97.52967 22983 ft 385 kts 17°
2026-04-20 13:09 35.98866 -97.51793 23536 ft 388 kts 17°
2026-04-20 13:09 36.01403 -97.50608 24056 ft 391 kts 17°
2026-04-20 13:09 36.03960 -97.49412 24504 ft 394 kts 17°
2026-04-20 13:09 36.06533 -97.48209 24936 ft 397 kts 16°
2026-04-20 13:10 36.09128 -97.46995 25361 ft 400 kts 16°
2026-04-20 13:10 36.11743 -97.45774 25783 ft 403 kts 16°
2026-04-20 13:10 36.14377 -97.44543 26195 ft 406 kts 16°
2026-04-20 13:10 36.17028 -97.43300 26604 ft 409 kts 15°
2026-04-20 13:11 36.19698 -97.42044 27003 ft 412 kts 15°
2026-04-20 13:11 36.22382 -97.40779 27393 ft 415 kts 15°
2026-04-20 13:11 36.25088 -97.39505 27785 ft 417 kts 15°
2026-04-20 13:11 36.27806 -97.38227 28188 ft 420 kts 15°
2026-04-20 13:12 36.30546 -97.36937 28607 ft 422 kts 15°
2026-04-20 13:12 36.33297 -97.35640 28977 ft 425 kts 15°
2026-04-20 13:12 36.36093 -97.34324 29110 ft 434 kts 15°
2026-04-20 13:12 36.38903 -97.33003 29244 ft 441 kts 15°
2026-04-20 13:13 36.41793 -97.31641 29405 ft 447 kts 15°
2026-04-20 13:13 36.44747 -97.30243 29682 ft 451 kts 15°
2026-04-20 13:13 36.47688 -97.28848 29984 ft 453 kts 15°
2026-04-20 13:13 36.50601 -97.27467 30280 ft 456 kts 15°
2026-04-20 13:14 36.53571 -97.26057 30568 ft 458 kts 15°
2026-04-20 13:14 36.56540 -97.24646 30972 ft 456 kts 15°
2026-04-20 13:14 36.59501 -97.23236 31397 ft 454 kts 14°
2026-04-20 13:14 36.62450 -97.21832 31799 ft 453 kts 14°
2026-04-20 13:15 36.65391 -97.20433 32182 ft 452 kts 14°
2026-04-20 13:15 36.68329 -97.19034 32574 ft 451 kts 14°
2026-04-20 13:15 36.71255 -97.17638 32950 ft 450 kts 14°
2026-04-20 13:15 36.74179 -97.16244 33335 ft 450 kts 14°
2026-04-20 13:16 36.77095 -97.14826 33717 ft 449 kts 15°
2026-04-20 13:16 36.79985 -97.13370 34183 ft 447 kts 15°
2026-04-20 13:16 36.82860 -97.11887 34594 ft 445 kts 15°
2026-04-20 13:16 36.85713 -97.10405 34906 ft 445 kts 15°
2026-04-20 13:17 36.88579 -97.08919 35182 ft 446 kts 15°
2026-04-20 13:17 36.91447 -97.07438 35445 ft 446 kts 15°
2026-04-20 13:17 36.94323 -97.05963 35704 ft 447 kts 15°
2026-04-20 13:17 36.97199 -97.04498 35954 ft 447 kts 14°
2026-04-20 13:18 37.00086 -97.03029 36204 ft 448 kts 14°
2026-04-20 13:18 37.02936 -97.01573 36482 ft 449 kts 14°
2026-04-20 13:18 37.05821 -97.00095 36780 ft 448 kts 14°
2026-04-20 13:18 37.08704 -96.98615 37042 ft 448 kts 14°
2026-04-20 13:19 37.11589 -96.97134 37243 ft 449 kts 14°
2026-04-20 13:19 37.17384 -96.94156 37305 ft 451 kts 14°
2026-04-20 13:20 37.23183 -96.91155 37301 ft 451 kts 14°
2026-04-20 13:20 37.28989 -96.88145 37282 ft 451 kts 15°
2026-04-20 13:21 37.34769 -96.85158 37266 ft 448 kts 15°
2026-04-20 13:21 37.40536 -96.82174 37280 ft 448 kts 15°
2026-04-20 13:22 37.46295 -96.79183 37280 ft 448 kts 15°
2026-04-20 13:22 37.52115 -96.76162 37273 ft 458 kts 15°
2026-04-20 13:23 37.58000 -96.73102 37270 ft 457 kts 15°
2026-04-20 13:23 37.63873 -96.70032 37273 ft 457 kts 15°
2026-04-20 13:24 37.69749 -96.66956 37272 ft 457 kts 15°
2026-04-20 13:24 37.75624 -96.63881 37275 ft 457 kts 15°
2026-04-20 13:25 37.81496 -96.60806 37298 ft 456 kts 15°
2026-04-20 13:25 37.87320 -96.57745 37288 ft 456 kts 15°
2026-04-20 13:26 37.93169 -96.54662 37268 ft 455 kts 15°
2026-04-20 13:26 37.99017 -96.51573 37274 ft 455 kts 16°
2026-04-20 13:27 38.04868 -96.48485 37277 ft 455 kts 16°
2026-04-20 13:27 38.10713 -96.45396 37296 ft 454 kts 15°
2026-04-20 13:28 38.15565 -96.42829 37291 ft 454 kts 15°
2026-04-20 13:28 38.21393 -96.39741 37288 ft 454 kts 15°
2026-04-20 13:29 38.27217 -96.36646 37290 ft 453 kts 16°
2026-04-20 13:29 38.33037 -96.33546 37292 ft 453 kts 16°
2026-04-20 13:30 38.38850 -96.30442 37287 ft 453 kts 16°
2026-04-20 13:30 38.44664 -96.27330 37284 ft 453 kts 16°
2026-04-20 13:31 38.50474 -96.24230 37307 ft 453 kts 16°
2026-04-20 13:31 38.56288 -96.21119 37292 ft 452 kts 16°
2026-04-20 13:32 38.62080 -96.18000 37273 ft 452 kts 16°
2026-04-20 13:32 38.67870 -96.14883 37263 ft 452 kts 16°
2026-04-20 13:33 38.73669 -96.11759 37272 ft 452 kts 16°
2026-04-20 13:33 38.79456 -96.08632 37295 ft 451 kts 16°
2026-04-20 13:34 38.85233 -96.05502 37277 ft 450 kts 16°
2026-04-20 13:34 38.90964 -96.02396 37273 ft 450 kts 16°
2026-04-20 13:35 38.96732 -95.99271 37268 ft 450 kts 16°
2026-04-20 13:35 39.02491 -95.96147 37280 ft 449 kts 16°
2026-04-20 13:36 39.08253 -95.93012 37279 ft 449 kts 16°
2026-04-20 13:36 39.14009 -95.89861 37272 ft 449 kts 16°
2026-04-20 13:37 39.19758 -95.86710 37266 ft 449 kts 16°
2026-04-20 13:37 39.25505 -95.83562 37282 ft 448 kts 16°
2026-04-20 13:38 39.31243 -95.80418 37268 ft 448 kts 16°
2026-04-20 13:38 39.36974 -95.77267 37270 ft 447 kts 16°
2026-04-20 13:39 39.42700 -95.74111 37263 ft 447 kts 16°
2026-04-20 13:39 39.48428 -95.70947 37314 ft 447 kts 16°
2026-04-20 13:40 39.54116 -95.67797 37248 ft 443 kts 16°
2026-04-20 13:40 39.59778 -95.64663 37250 ft 443 kts 16°
2026-04-20 13:41 39.65445 -95.61530 37257 ft 443 kts 16°
2026-04-20 13:41 39.71110 -95.58393 37282 ft 442 kts 16°
2026-04-20 13:42 39.76765 -95.55247 37275 ft 442 kts 16°
2026-04-20 13:42 39.85233 -95.50516 37271 ft 441 kts 16°
2026-04-20 13:43 39.90877 -95.47364 37297 ft 441 kts 16°
2026-04-20 13:43 39.96475 -95.44229 37289 ft 440 kts 16°
2026-04-20 13:44 40.02099 -95.41069 37283 ft 440 kts 16°
2026-04-20 13:44 40.07710 -95.37908 37280 ft 439 kts 16°
2026-04-20 13:45 40.13325 -95.34755 37294 ft 439 kts 16°
2026-04-20 13:45 40.18922 -95.31598 37272 ft 436 kts 16°
2026-04-20 13:46 40.24458 -95.28459 37266 ft 433 kts 16°
2026-04-20 13:46 40.29998 -95.25320 37271 ft 434 kts 16°
2026-04-20 13:47 40.35540 -95.22184 37269 ft 434 kts 16°
2026-04-20 13:47 40.41097 -95.19104 37286 ft 432 kts 14°
2026-04-20 13:48 40.46710 -95.16339 37288 ft 430 kts 12°
2026-04-20 13:48 40.52346 -95.13675 37301 ft 430 kts 13°
2026-04-20 13:49 40.57966 -95.10950 37301 ft 431 kts 13°
2026-04-20 13:49 40.63575 -95.08158 37304 ft 431 kts 13°
2026-04-20 13:50 40.69182 -95.05355 37303 ft 431 kts 13°
2026-04-20 13:50 40.74789 -95.02573 37302 ft 431 kts 13°
2026-04-20 13:51 40.80394 -94.99781 37317 ft 431 kts 13°
2026-04-20 13:51 40.85958 -94.97002 37310 ft 430 kts 13°
2026-04-20 13:52 40.91557 -94.94213 37297 ft 429 kts 13°
2026-04-20 13:52 40.97131 -94.91430 37292 ft 428 kts 13°
2026-04-20 13:53 41.02703 -94.88638 37297 ft 428 kts 13°
2026-04-20 13:53 41.08269 -94.85849 37325 ft 427 kts 13°
2026-04-20 13:54 41.13824 -94.83062 37319 ft 427 kts 13°
2026-04-20 13:54 41.19377 -94.80253 37315 ft 427 kts 13°
2026-04-20 13:55 41.24928 -94.77449 37322 ft 427 kts 13°
2026-04-20 13:55 41.30480 -94.74643 37316 ft 426 kts 13°
2026-04-20 13:56 41.36023 -94.71832 37318 ft 426 kts 13°
2026-04-20 13:56 41.41558 -94.69031 37317 ft 426 kts 13°
2026-04-20 13:57 41.47093 -94.66216 37352 ft 426 kts 13°
2026-04-20 13:57 41.52632 -94.63390 37350 ft 426 kts 13°
2026-04-20 13:58 41.58127 -94.60590 37344 ft 426 kts 13°
2026-04-20 13:58 41.63657 -94.57759 37346 ft 425 kts 13°
2026-04-20 13:59 41.69180 -94.54925 37388 ft 426 kts 13°
2026-04-20 13:59 41.74718 -94.52081 37344 ft 426 kts 13°
2026-04-20 14:00 41.80257 -94.49244 37335 ft 426 kts 13°
2026-04-20 14:00 41.85792 -94.46395 37332 ft 426 kts 13°
2026-04-20 14:01 41.91325 -94.43536 37354 ft 426 kts 13°
2026-04-20 14:01 41.96861 -94.40671 37352 ft 426 kts 13°
2026-04-20 14:02 42.02402 -94.37799 37351 ft 427 kts 13°
2026-04-20 14:02 42.07939 -94.34926 37357 ft 426 kts 13°
2026-04-20 14:03 42.13477 -94.32050 37388 ft 426 kts 13°
2026-04-20 14:03 42.19010 -94.29171 37397 ft 426 kts 14°
2026-04-20 14:04 42.24541 -94.26274 37390 ft 426 kts 14°
2026-04-20 14:04 42.30065 -94.23380 37363 ft 426 kts 14°
2026-04-20 14:05 42.35594 -94.20487 37372 ft 426 kts 14°
2026-04-20 14:05 42.41109 -94.17596 37340 ft 424 kts 14°
2026-04-20 14:06 42.46612 -94.14707 37317 ft 424 kts 14°
2026-04-20 14:06 42.52075 -94.11829 37315 ft 424 kts 14°
2026-04-20 14:07 42.57576 -94.08921 37340 ft 424 kts 14°
2026-04-20 14:07 42.63009 -94.05737 37342 ft 432 kts 22°
2026-04-20 14:08 42.68232 -94.01700 37353 ft 432 kts 22°
2026-04-20 14:08 42.73449 -93.97654 37345 ft 432 kts 22°
2026-04-20 14:10 42.88401 -93.86020 37344 ft 432 kts 22°
2026-04-20 14:10 42.93641 -93.82005 37391 ft 432 kts 22°
2026-04-20 14:11 42.98873 -93.77997 37382 ft 429 kts 22°
2026-04-20 14:11 43.04069 -93.73993 37341 ft 429 kts 22°
2026-04-20 14:12 43.09263 -93.69975 37325 ft 429 kts 22°
2026-04-20 14:12 43.14460 -93.65944 37316 ft 430 kts 22°
2026-04-20 14:13 43.19660 -93.61905 37334 ft 430 kts 22°
2026-04-20 14:13 43.24862 -93.57862 37334 ft 430 kts 22°
2026-04-20 14:14 43.30342 -93.55115 37331 ft 413 kts
2026-04-20 14:14 43.35988 -93.54484 37338 ft 409 kts 359°
2026-04-20 14:15 43.41674 -93.53984 37362 ft 410 kts 359°
2026-04-20 14:15 43.47359 -93.53473 37354 ft 407 kts 359°
2026-04-20 14:16 43.52918 -93.52978 37168 ft 397 kts 359°
2026-04-20 14:16 43.55669 -93.52737 36642 ft 396 kts 359°
2026-04-20 14:16 43.58418 -93.52502 35948 ft 396 kts 359°
2026-04-20 14:17 43.61167 -93.52267 35136 ft 397 kts 359°
2026-04-20 14:17 43.63928 -93.52031 34361 ft 398 kts 359°
2026-04-20 14:17 43.66695 -93.51792 33512 ft 399 kts 359°
2026-04-20 14:17 43.69468 -93.51549 32631 ft 399 kts 359°
2026-04-20 14:18 43.72241 -93.51303 31723 ft 401 kts 359°
2026-04-20 14:18 43.75033 -93.51055 30817 ft 402 kts 359°
2026-04-20 14:18 43.77830 -93.50807 29759 ft 405 kts 359°
2026-04-20 14:18 43.80630 -93.50558 29075 ft 399 kts 359°
2026-04-20 14:19 43.83363 -93.50309 28511 ft 390 kts 358°
2026-04-20 14:19 43.86047 -93.50064 27920 ft 383 kts 358°
2026-04-20 14:19 43.88686 -93.49830 27350 ft 377 kts 358°
2026-04-20 14:19 43.91284 -93.49601 26769 ft 372 kts 358°
2026-04-20 14:20 43.93842 -93.49376 26328 ft 364 kts 358°
2026-04-20 14:20 43.96349 -93.49151 26007 ft 358 kts 358°
2026-04-20 14:20 43.98833 -93.48908 25772 ft 357 kts 358°
2026-04-20 14:20 44.01308 -93.48636 25308 ft 356 kts 359°
2026-04-20 14:21 44.03772 -93.48348 24753 ft 355 kts 359°
2026-04-20 14:21 44.06228 -93.48055 24190 ft 354 kts 359°
2026-04-20 14:21 44.08676 -93.47763 23588 ft 353 kts 359°
2026-04-20 14:21 44.11122 -93.47473 23003 ft 352 kts 359°
2026-04-20 14:22 44.13557 -93.47188 22443 ft 350 kts 359°
2026-04-20 14:22 44.15978 -93.46909 21946 ft 347 kts 359°
2026-04-20 14:22 44.18378 -93.46495 21411 ft 351 kts
2026-04-20 14:22 44.20687 -93.45482 20872 ft 357 kts 14°
2026-04-20 14:23 44.23016 -93.44204 20445 ft 353 kts 14°
2026-04-20 14:23 44.25288 -93.42944 19954 ft 350 kts 14°
2026-04-20 14:23 44.27515 -93.41707 19463 ft 348 kts 14°
2026-04-20 14:23 44.29789 -93.40441 18946 ft 346 kts 14°
2026-04-20 14:24 44.31985 -93.39214 18324 ft 342 kts 14°
2026-04-20 14:24 44.34183 -93.37982 17427 ft 340 kts 14°
2026-04-20 14:24 44.36370 -93.36754 16609 ft 339 kts 15°
2026-04-20 14:24 44.38543 -93.35423 16034 ft 342 kts 18°
2026-04-20 14:25 44.40685 -93.33984 15570 ft 340 kts 19°
2026-04-20 14:25 44.42806 -93.32496 15059 ft 340 kts 20°
2026-04-20 14:25 44.44920 -93.30993 14499 ft 341 kts 20°
2026-04-20 14:25 44.47022 -93.29500 14127 ft 336 kts 20°
2026-04-20 14:26 44.49108 -93.28034 13600 ft 335 kts 20°
2026-04-20 14:26 44.51192 -93.26587 13081 ft 333 kts 20°
2026-04-20 14:26 44.53255 -93.25150 12682 ft 328 kts 20°
2026-04-20 14:26 44.55253 -93.23738 12550 ft 315 kts 20°
2026-04-20 14:27 44.57169 -93.22378 12433 ft 303 kts 20°
2026-04-20 14:27 44.59086 -93.21347 12199 ft 288 kts
2026-04-20 14:27 44.61030 -93.20985 11801 ft 280 kts 355°
2026-04-20 14:27 44.62946 -93.21177 11485 ft 273 kts 349°
2026-04-20 14:28 44.64830 -93.21428 11107 ft 272 kts 349°
2026-04-20 14:28 44.66717 -93.21665 10725 ft 271 kts 349°
2026-04-20 14:28 44.68571 -93.22026 10342 ft 267 kts 341°
2026-04-20 14:28 44.70285 -93.22928 9943 ft 261 kts 329°
2026-04-20 14:29 44.71833 -93.24236 9500 ft 260 kts 325°
2026-04-20 14:29 44.73377 -93.25580 8986 ft 262 kts 325°
2026-04-20 14:29 44.74918 -93.26921 8587 ft 260 kts 325°
2026-04-20 14:29 44.76450 -93.28251 8245 ft 256 kts 325°
2026-04-20 14:30 44.77932 -93.29533 8114 ft 245 kts 325°
2026-04-20 14:30 44.79356 -93.30765 8012 ft 237 kts 324°
2026-04-20 14:30 44.80609 -93.32220 7991 ft 233 kts 310°
2026-04-20 14:30 44.81532 -93.34081 7992 ft 232 kts 300°
2026-04-20 14:31 44.82365 -93.36029 7995 ft 232 kts 300°
2026-04-20 14:31 44.83203 -93.37977 7879 ft 232 kts 300°
2026-04-20 14:31 44.84036 -93.39923 7734 ft 232 kts 300°
2026-04-20 14:31 44.84857 -93.41844 7594 ft 232 kts 300°
2026-04-20 14:32 44.85698 -93.43819 7454 ft 232 kts 300°
2026-04-20 14:32 44.86528 -93.45771 7315 ft 232 kts 300°
2026-04-20 14:32 44.87346 -93.47702 7190 ft 233 kts 300°
2026-04-20 14:32 44.88177 -93.49659 7040 ft 233 kts 300°
2026-04-20 14:33 44.89092 -93.51548 6802 ft 236 kts 310°
2026-04-20 14:33 44.90377 -93.52980 6426 ft 238 kts 328°
2026-04-20 14:33 44.91942 -93.53768 6072 ft 242 kts 346°
2026-04-20 14:33 44.93636 -93.53800 5721 ft 248 kts
2026-04-20 14:34 44.95280 -93.53022 5368 ft 253 kts 26°
2026-04-20 14:34 44.96666 -93.51476 4999 ft 256 kts 47°
2026-04-20 14:34 44.97596 -93.49339 4617 ft 257 kts 70°
2026-04-20 14:34 44.97937 -93.46924 4448 ft 244 kts 91°
2026-04-20 14:35 44.97729 -93.44643 4389 ft 227 kts 110°
2026-04-20 14:35 44.97089 -93.42694 4311 ft 212 kts 126°
2026-04-20 14:35 44.96316 -93.40904 3981 ft 215 kts 126°
2026-04-20 14:35 44.95533 -93.39093 3667 ft 217 kts 126°
2026-04-20 14:36 44.94775 -93.37330 3483 ft 205 kts 126°
2026-04-20 14:36 44.94050 -93.35639 3066 ft 197 kts 127°
2026-04-20 14:36 44.93361 -93.34029 2764 ft 186 kts 127°
2026-04-20 14:36 44.92710 -93.32509 2490 ft 175 kts 127°
2026-04-20 14:37 44.92101 -93.31089 2237 ft 163 kts 128°
2026-04-20 14:37 44.91533 -93.29767 1992 ft 153 kts 127°
2026-04-20 14:37 44.90995 -93.28521 1762 ft 145 kts 127°
2026-04-20 14:37 44.90483 -93.27341 1540 ft 137 kts 126°
2026-04-20 14:38 44.90000 -93.26219 1361 ft 131 kts 126°
2026-04-20 14:38 44.89531 -93.25131 1160 ft 129 kts 126°
2026-04-20 14:38 44.89065 -93.24065 967 ft 127 kts 126°
2026-04-20 14:38 44.88604 -93.23007 834 ft 126 kts 126°
2026-04-20 14:39 44.88232 -93.22161 826 ft 63 kts 119°
2026-04-20 14:39 44.88087 -93.21820 823 ft 28 kts 119°
2026-04-20 14:39 44.87986 -93.21727 824 ft 17 kts 196°
2026-04-20 14:39 44.87975 -93.21855 824 ft 15 kts 299°
2026-04-20 14:40 44.88029 -93.21983 823 ft 16 kts 301°
2026-04-20 14:40 44.88087 -93.22115 826 ft 15 kts 302°
2026-04-20 14:40 44.88100 -93.22184 826 ft 1 kts 233°
2026-04-20 14:40 44.88077 -93.22210 825 ft 8 kts 220°
2026-04-20 14:41 44.88013 -93.22307 824 ft 19 kts 227°
2026-04-20 14:41 44.87915 -93.22451 825 ft 21 kts 226°
2026-04-20 14:41 44.87812 -93.22597 822 ft 22 kts 226°
2026-04-20 14:41 44.87705 -93.22749 825 ft 22 kts 224°
2026-04-20 14:42 44.87594 -93.22904 825 ft 23 kts 225°
2026-04-20 14:42 44.87492 -93.23044 824 ft 14 kts 225°
2026-04-20 14:42 44.87438 -93.23031 825 ft 8 kts 135°
2026-04-20 14:42 44.87405 -93.22986 823 ft 4 kts 135°
2026-04-20 14:43 44.87401 -93.22979 824 ft 0 kts 135°